Tracking 28764 objects as of 13-Apr-2024
HD Live streaming from Space Station
objects crossing your sky now

COSMOS 2491 DEB

Track COSMOS 2491 DEB now!
10-day predictions


NORAD ID: 57568
Int'l Code: 2013-076BF
Perigee: 1,346.2 km
Apogee: 1,498.0 km
Inclination: 82.5 °
Period: 114.1 minutes
Semi major axis: 7793 km
RCS: Unknown
Launch date: December 25, 2013
Source: Commonwealth of Independent States (former USSR) (CIS)
Launch site: PLESETSK MISSILE AND SPACE COMPLEX (PKMTR)

Note: This is SATELLITE DEBRIS
Your satellite tracking list
Your tracking list is empty




NASA's NSSDC Master Catalog

Two Line Element Set (TLE):
1 57568U 13076BF  24103.76185863  .00003506  00000-0  19283-1 0  9990
2 57568  82.4724 275.4036 0097339 203.4270 156.2372 12.61936799 42742
Source of the keplerian elements: AFSPC